GFSSW_925_spd_096.txt.gz
Wind_Speed
17 16 14 13 11 10 10 9 9 9 10 9 10 8 11 14 16 10 6 5 4 5 5 2 2 3 2 3 2 3 4 1 2 1 1 5 2 5 1 4 4 5 3 2 20
19 18 16 15 14 12 11 10 10 10 9 10 9 9 11 14 17 10 9 7 6 7 7 4 1 4 4 2 3 4 3 4 2 1 2 2 2 2 2 4 2 3 6 9 10
20 19 18 17 15 14 13 12 11 10 8 9 9 9 11 13 5 6 9 13 8 9 6 4 4 3 2 2 2 3 4 3 2 3 5 1 3 2 3 1 4 5 5 4 5
21 19 19 18 16 15 13 13 12 10 9 7 8 8 11 6 4 3 5 16 10 10 8 1 2 2 1 3 2 2 5 3 3 3 3 2 1 3 3 5 4 6 4 4 5
22 21 20 18 17 16 14 13 12 10 9 7 5 8 4 2 7 7 4 13 12 10 6 2 2 2 3 2 1 1 2 3 2 5 3 2 4 4 4 3 5 7 7 5 3
22 21 20 18 16 16 14 13 13 11 8 7 4 6 1 3 4 3 6 11 9 10 4 4 3 3 3 1 2 2 3 4 5 5 3 4 3 3 4 7 5 6 6 5 4
25 21 20 19 18 16 15 13 12 11 8 5 5 2 2 11 3 2 2 8 9 7 3 2 4 3 1 4 1 2 5 7 6 4 5 5 5 9 4 7 7 6 5 5 4
27 23 21 20 19 17 15 13 11 9 7 5 5 2 6 10 11 23 12 8 9 6 4 3 3 4 2 1 6 3 3 3 4 5 1 5 8 7 7 9 8 7 5 5 4
31 25 23 20 18 17 14 11 9 7 6 4 4 4 7 7 9 14 16 7 7 6 5 3 3 3 3 3 4 4 2 3 6 4 3 4 5 5 6 7 8 7 6 5 5
35 28 24 21 19 16 12 8 5 4 5 2 4 3 6 5 5 16 15 10 4 6 3 3 4 3 3 4 4 3 3 4 4 3 3 3 10 7 6 7 11 9 7 6 6
36 30 27 23 20 18 16 7 2 1 5 8 7 5 3 11 3 8 15 10 3 5 5 2 3 6 8 8 6 2 5 6 4 4 5 7 7 9 9 3 8 8 8 7 7
37 32 28 24 22 21 20 5 6 4 4 18 5 8 9 3 3 4 15 6 5 5 4 4 6 9 6 4 6 6 3 6 5 0 2 6 9 12 8 9 10 14 9 9 7
40 34 29 26 24 23 25 18 6 5 2 4 12 7 6 8 6 5 10 6 5 7 8 7 6 8 7 4 6 4 5 4 6 4 2 3 8 7 4 6 8 7 7 6 12
41 34 31 28 20 20 14 33 4 7 3 6 6 8 7 4 5 8 13 6 3 10 7 6 8 6 5 6 6 3 5 3 2 2 3 2 5 6 5 5 8 12 9 9 9
43 37 37 38 14 17 17 34 14 1 1 4 5 2 7 9 5 8 10 4 8 7 7 7 4 7 6 13 7 8 6 4 1 2 2 1 1 6 1 6 7 10 12 9 10
47 43 42 36 12 18 17 30 8 4 8 4 6 6 6 5 3 2 5 3 5 4 2 9 3 5 7 2 5 4 3 5 4 3 2 6 7 5 4 7 4 6 11 13 9
46 48 48 35 8 22 25 12 4 6 3 6 6 6 7 8 4 6 8 7 7 6 5 2 3 2 4 4 1 3 5 2 2 1 5 3 3 10 6 7 10 18 15 12 10
47 46 45 33 17 27 22 4 5 9 8 3 5 7 8 6 5 6 8 8 4 4 4 7 3 8 5 7 6 6 6 4 5 3 3 2 5 5 4 7 6 10 15 12 11
41 39 33 35 18 27 11 13 12 6 8 9 5 6 5 5 7 4 7 8 11 8 7 6 5 1 1 3 9 4 4 5 2 1 1 4 7 9 2 5 5 9 11 15 14
34 23 25 35 25 5 12 14 8 5 9 6 8 6 10 8 6 10 8 6 6 10 4 5 3 1 3 3 3 5 5 3 1 4 4 4 5 5 3 4 5 8 12 14 13
19 6 22 30 18 4 17 12 5 6 7 7 8 6 6 8 9 6 9 6 13 9 13 5 3 1 2 6 8 3 3 2 3 4 4 1 5 5 5 7 9 9 11 14 16
8 6 29 33 6 9 8 9 5 7 2 4 4 4 8 9 7 8 11 6 7 9 11 9 5 4 8 2 5 4 7 7 4 4 2 3 5 3 4 5 7 9 8 8 11
8 3 25 26 12 15 5 8 4 6 6 5 4 3 4 7 5 7 7 2 2 10 12 9 4 2 1 2 1 5 5 5 4 2 5 4 5 2 4 4 6 8 8 8 9
4 6 6 6 5 16 17 22 11 4 5 5 5 4 4 4 2 7 7 1 1 3 5 13 3 9 7 4 4 5 7 8 6 4 4 6 6 6 5 6 6 6 8 8 10
3 6 7 18 19 17 20 20 19 8 4 6 3 5 6 3 5 5 3 2 3 1 3 6 8 5 5 4 4 5 6 9 9 10 7 10 9 13 7 8 8 7 3 6 7
6 7 7 10 17 17 22 19 22 18 10 7 8 9 6 6 7 8 7 5 5 1 4 1 2 6 4 4 7 4 6 8 9 6 7 7 11 6 9 4 4 8 7 7 8
4 7 10 18 20 13 24 18 25 10 2 9 7 6 5 7 2 4 5 6 8 9 6 7 6 3 4 3 2 4 7 8 6 6 8 8 14 4 4 7 6 6 8 10 10

GFSSW_925_spd_102.txt.gz
Wind_Speed
24 21 18 19 18 16 14 13 13 12 13 13 12 13 13 16 17 14 6 7 0 5 5 3 2 1 0 3 3 3 4 2 4 4 2 3 2 1 0 2 1 2 2 1 13
26 23 21 20 20 18 15 15 14 12 13 13 12 13 12 15 19 12 17 9 6 6 7 5 2 1 2 1 2 4 3 6 4 2 2 1 1 2 2 1 2 2 1 6 18
28 26 23 21 21 19 18 16 15 13 14 12 12 12 11 13 5 6 2 14 9 8 4 4 2 2 2 1 1 3 4 4 3 3 3 2 2 3 2 4 7 7 5 7 9
28 27 25 23 22 20 19 17 16 14 14 12 11 11 10 4 5 1 8 7 13 9 6 3 2 3 2 2 1 1 3 5 2 3 3 2 0 2 6 7 2 7 6 6 7
29 28 26 25 23 20 19 17 16 14 13 12 10 9 4 2 9 9 11 5 14 11 7 4 2 4 2 2 3 1 2 3 4 3 5 1 6 6 6 7 2 5 6 7 7
27 27 26 25 23 20 20 17 15 14 12 11 8 5 1 4 6 7 3 8 8 10 7 6 5 5 3 2 4 3 2 3 5 5 4 6 3 4 4 6 6 6 6 6 5
26 26 27 24 22 21 18 16 14 12 11 9 6 2 1 12 4 1 1 2 5 7 3 6 5 4 5 1 1 2 4 6 5 2 6 6 7 9 4 5 8 7 6 5 4
20 26 27 25 22 20 17 14 13 11 10 6 4 1 7 9 8 20 15 10 5 8 6 3 5 4 2 4 6 4 4 4 3 4 1 5 8 6 3 8 10 8 6 6 4
16 18 29 27 23 19 16 12 11 9 8 4 2 2 9 7 7 17 17 5 5 7 4 5 3 2 4 5 4 6 3 3 7 3 2 3 6 2 2 6 8 8 7 6 5
21 15 21 30 26 20 14 11 7 6 6 3 1 2 6 4 5 8 15 11 3 5 3 3 5 3 3 3 5 4 3 4 5 3 2 3 10 10 5 7 10 8 8 7 7
25 23 13 34 30 22 18 8 3 2 6 9 7 6 3 3 2 4 9 11 4 4 6 1 4 6 10 7 5 4 3 6 5 5 3 7 9 12 7 6 9 10 9 9 8
26 25 24 17 35 29 26 5 7 2 5 18 5 8 10 2 2 3 12 6 5 6 6 3 7 9 5 4 4 3 3 6 6 3 4 7 11 11 7 8 12 15 11 11 6
25 29 28 23 33 36 32 30 2 3 3 4 16 6 5 8 5 7 10 6 5 6 7 8 4 8 7 4 5 4 4 4 7 4 2 6 8 5 5 5 6 8 7 8 12
26 30 30 25 24 31 26 37 12 8 3 6 7 9 6 7 5 9 13 7 3 12 8 6 5 5 5 5 7 5 6 6 4 1 3 2 5 7 7 9 6 8 9 10 10
29 29 31 26 17 19 17 26 22 4 4 8 7 5 8 11 7 5 10 4 9 7 7 8 7 6 4 7 7 8 5 4 1 2 2 2 1 7 2 8 10 8 10 9 12
29 28 26 29 24 29 28 34 10 4 10 5 7 8 7 5 5 4 4 4 5 6 1 8 3 7 9 4 8 5 5 5 4 2 2 6 6 5 4 5 5 3 6 9 10
28 26 27 21 6 37 43 17 5 7 2 7 7 7 7 7 6 7 8 7 8 6 5 2 3 2 4 5 2 4 5 2 3 1 6 1 2 9 6 6 6 6 8 10 11
28 26 28 27 29 24 42 14 6 13 9 3 6 10 8 7 6 6 9 9 5 6 5 7 4 8 4 7 7 6 7 5 6 3 4 2 5 6 6 3 5 7 5 8 9
24 23 23 30 34 26 19 12 14 8 16 9 7 6 5 6 7 5 8 14 12 8 8 6 6 1 4 4 9 5 4 5 4 0 1 4 8 10 4 5 2 2 5 9 11
13 13 27 31 27 26 15 14 9 7 19 9 8 6 8 10 7 9 9 7 7 8 7 7 2 2 4 4 3 8 7 2 2 3 4 5 5 7 5 4 1 3 7 7 7
13 5 9 25 32 12 14 13 8 5 11 8 7 6 7 9 9 8 10 2 13 12 8 6 4 1 4 5 9 3 3 3 4 4 5 2 6 6 4 5 6 6 7 8 9
5 6 8 29 10 11 10 12 8 7 5 3 6 5 8 10 6 7 11 9 10 14 14 7 5 5 8 1 3 4 7 7 4 5 3 3 6 3 5 7 4 6 6 7 8
3 3 12 35 10 14 8 10 6 15 8 7 5 4 4 8 5 6 7 6 9 9 12 8 4 3 1 3 2 4 4 4 4 3 6 5 5 3 4 5 3 5 5 4 7
3 4 4 10 10 22 15 22 16 8 7 5 6 5 6 4 2 9 8 4 8 9 10 12 5 10 11 6 6 4 6 9 8 4 8 7 8 6 5 5 5 6 6 6 6
3 3 2 4 7 23 22 26 24 9 6 7 2 8 9 6 4 5 4 4 2 5 6 7 7 7 10 6 6 7 6 12 10 16 8 15 11 18 14 8 8 8 6 6 6
2 4 4 3 11 22 25 25 29 13 17 13 9 9 6 9 8 9 9 5 6 3 7 2 4 7 6 8 8 5 8 8 10 4 8 13 10 8 6 4 6 10 7 8 8
6 5 2 6 9 18 21 27 32 12 0 12 12 7 6 9 8 6 7 8 10 10 7 8 6 4 7 6 6 7 8 8 6 5 7 7 18 3 5 8 7 8 7 9 7

GFSSW_925_spd_105.txt.gz
Wind_Speed
22 22 22 21 18 16 15 15 14 15 14 15 15 14 14 16 17 14 6 8 2 8 8 6 3 1 2 2 3 2 3 2 3 4 2 1 2 1 1 3 1 1 2 1 14
23 23 25 23 20 18 17 15 14 15 15 15 15 14 15 15 18 14 14 10 9 7 8 8 3 2 2 2 2 3 2 6 3 2 3 2 2 4 3 2 3 2 1 4 15
23 26 26 25 23 20 18 16 16 15 15 14 15 13 14 13 5 5 4 5 13 10 8 7 4 3 2 1 1 2 3 3 3 4 3 1 1 3 4 4 7 6 5 8 11
22 24 28 26 24 21 18 16 16 14 14 13 14 12 12 5 4 2 9 4 16 11 9 8 3 4 3 3 2 2 2 4 2 2 3 2 1 3 5 6 2 6 5 9 12
20 23 27 27 24 22 19 16 17 15 13 12 12 10 5 2 9 10 12 2 17 14 10 5 5 4 5 4 3 3 3 4 2 3 3 1 5 5 6 7 3 3 7 10 9
21 18 24 25 25 22 19 16 17 13 12 11 9 7 1 4 6 6 2 7 11 13 7 6 6 5 4 3 4 2 1 2 2 3 3 4 3 3 5 2 4 5 8 7 8
21 19 19 24 27 21 18 16 14 12 11 9 7 3 1 12 4 3 4 3 6 8 4 5 6 4 5 3 1 2 2 5 3 0 4 4 6 9 4 3 6 7 6 6 8
21 20 21 22 23 20 17 15 12 11 9 7 5 2 7 9 11 22 10 10 5 8 5 2 5 5 2 4 5 3 4 2 2 3 2 4 7 6 2 7 9 9 7 6 6
23 22 22 15 24 23 17 12 11 10 7 5 3 3 9 5 7 17 16 7 7 6 3 6 4 3 3 5 3 5 2 3 6 4 2 3 6 3 2 5 8 9 10 8 7
23 24 22 24 13 24 17 13 9 6 6 3 2 0 7 4 5 6 16 14 3 5 4 4 4 3 2 3 5 4 3 4 4 3 2 4 11 13 7 7 10 10 11 10 10
20 24 25 23 23 24 23 14 5 1 7 8 8 6 2 2 3 3 9 11 4 4 6 2 3 7 8 7 4 5 4 5 4 4 2 6 10 14 13 6 11 12 12 13 13
22 21 25 23 25 19 36 9 11 5 5 19 3 8 8 3 4 4 13 6 5 5 6 3 8 8 6 4 4 3 4 5 5 2 4 6 10 15 11 13 11 15 14 14 8
21 20 21 24 27 26 25 23 19 9 1 4 17 6 5 8 4 7 10 5 5 6 7 7 3 9 7 4 5 3 4 4 6 3 3 5 7 6 5 5 5 9 9 12 16
20 20 19 18 16 17 23 30 15 13 2 6 7 9 7 7 6 8 14 7 3 12 8 5 4 5 4 5 7 5 7 4 4 2 3 2 5 6 10 11 6 8 10 11 14
20 21 18 13 14 9 8 35 16 18 6 7 8 7 10 11 10 6 9 4 9 7 7 8 8 6 4 7 7 8 6 5 2 3 2 1 4 6 5 9 12 6 10 11 13
23 21 19 16 18 28 31 33 12 7 10 6 7 9 9 7 5 5 4 4 4 6 0 8 3 7 10 3 8 8 5 5 3 2 3 7 6 3 5 4 4 2 3 8 12
24 25 23 20 11 22 21 15 5 6 6 8 8 10 9 8 7 8 11 8 9 7 5 2 3 4 4 5 2 4 5 2 2 1 5 2 2 10 12 7 6 9 5 7 11
29 27 27 26 22 24 15 8 6 8 8 3 7 12 13 7 8 8 13 14 5 5 5 8 5 8 4 8 8 7 9 5 6 4 3 2 5 6 6 5 5 5 6 7 11
24 22 24 22 23 13 2 11 8 7 8 7 7 9 5 5 7 5 9 17 18 9 10 6 7 1 4 5 9 5 4 4 4 1 0 4 6 9 5 5 3 4 2 7 10
12 9 18 19 19 10 5 9 6 5 12 9 7 5 8 13 7 12 11 9 8 8 7 7 2 3 3 4 4 7 8 3 1 4 5 3 4 6 7 8 8 4 5 5 7
8 4 6 20 21 5 8 9 9 10 9 9 7 6 7 9 8 12 14 2 16 11 8 6 4 1 4 6 9 3 3 3 4 4 4 2 4 5 5 6 7 6 5 6 9
4 5 10 20 10 4 12 7 6 11 9 4 5 5 9 9 6 8 12 9 10 17 18 7 5 4 7 2 4 5 8 11 7 4 2 1 6 5 6 6 5 6 5 4 6
5 3 14 17 9 10 10 17 8 12 14 6 4 4 3 9 5 5 8 5 8 16 18 9 4 4 2 2 2 4 5 4 4 3 7 6 5 0 3 6 6 6 4 4 5
3 3 5 8 11 17 21 18 16 19 13 6 5 5 6 6 3 9 8 4 8 10 12 15 4 12 11 4 6 5 6 7 9 4 6 7 9 15 10 5 6 6 5 5 6
2 4 2 4 13 16 18 14 25 13 6 8 1 9 8 6 4 5 5 3 2 4 6 7 6 5 6 6 6 8 8 13 11 16 11 11 11 15 14 10 10 8 5 6 6
2 3 3 2 4 13 16 16 29 22 18 21 6 8 7 9 8 9 10 5 7 3 6 2 3 7 7 7 8 6 8 8 14 5 8 7 10 13 8 6 6 10 7 8 8
4 6 4 5 9 7 10 25 27 22 11 22 18 9 7 10 9 8 7 9 12 11 6 8 6 4 6 4 3 7 11 10 5 6 9 8 17 6 6 9 12 10 7 9 8

GFSSW_925_spd_108.txt.gz
Wind_Speed
17 19 21 21 19 17 16 16 15 14 14 15 14 14 15 18 20 11 12 8 2 9 9 7 4 3 2 3 1 1 5 5 4 5 4 4 6 4 0 5 4 5 1 5 14
20 19 21 23 22 20 18 16 16 15 14 14 14 14 14 17 16 16 15 11 9 8 8 11 8 5 4 3 3 5 5 4 1 1 0 3 4 5 5 6 7 7 6 9 15
19 21 21 22 25 23 20 17 17 15 15 14 14 14 12 14 9 3 1 5 16 11 7 7 6 5 5 3 4 3 8 3 4 2 1 2 3 3 6 7 8 8 7 12 17
17 20 21 22 25 26 22 19 17 13 15 13 13 12 10 4 5 3 5 6 15 12 9 9 6 8 7 7 3 7 3 3 2 3 3 3 0 5 9 10 1 3 4 12 15
21 19 19 23 23 27 24 20 17 14 15 12 11 10 4 5 10 10 12 6 16 14 13 10 8 8 12 9 6 8 5 4 3 4 4 2 9 11 10 10 6 4 7 11 12
21 21 18 22 24 26 26 21 17 15 14 11 9 7 4 10 6 8 3 6 11 14 11 8 6 6 6 6 11 4 5 4 4 6 4 6 11 4 9 6 10 9 11 11 12
21 21 20 19 19 21 24 20 17 14 11 9 7 4 8 15 4 4 4 4 8 11 8 10 4 6 6 5 2 3 6 6 9 4 5 3 12 15 16 8 11 11 11 11 12
22 22 22 20 20 19 24 22 18 14 11 8 6 5 8 8 10 20 8 5 6 8 4 6 7 3 2 6 4 4 4 7 4 4 2 6 13 8 3 7 12 11 11 11 14
20 21 22 24 22 19 19 22 16 14 11 7 5 7 9 4 8 16 17 9 8 7 4 6 6 3 5 8 6 4 8 6 4 3 2 8 8 1 2 4 8 10 12 13 14
19 22 21 23 23 23 14 23 18 14 9 5 4 5 9 6 7 7 16 13 5 12 8 6 5 9 8 10 10 9 9 7 9 3 5 8 16 16 15 12 15 14 13 14 16
19 19 21 22 24 22 18 11 6 4 11 10 10 7 2 3 5 7 12 15 7 12 13 10 11 16 20 16 13 9 7 11 12 4 5 14 17 17 17 16 17 17 17 16 18
18 17 20 19 21 24 20 6 15 4 6 24 14 16 8 1 6 8 16 14 12 14 12 7 18 19 13 11 11 11 12 14 12 4 5 14 19 20 19 21 20 19 19 19 17
18 16 17 17 20 21 13 18 13 7 5 7 22 11 6 9 6 16 17 16 17 17 18 19 10 11 14 10 12 14 15 14 12 10 10 10 16 12 10 11 15 16 17 17 19
19 17 16 15 14 6 6 21 19 10 4 9 14 13 11 8 8 10 20 16 7 21 16 15 11 13 14 19 16 17 12 12 12 10 11 2 9 15 16 19 17 16 13 14 16
21 18 17 13 8 7 4 13 7 8 6 12 21 10 18 20 14 12 18 6 18 14 13 12 14 17 14 14 14 15 5 9 8 12 11 14 9 5 10 19 15 3 2 9 13
20 21 20 18 19 16 18 17 6 6 9 8 14 20 19 26 19 8 12 4 5 12 6 16 2 13 18 12 15 10 6 3 2 5 12 15 13 8 7 6 7 5 6 4 10
23 24 23 19 16 9 5 5 5 6 12 11 12 20 31 18 26 17 18 19 13 13 17 14 13 6 4 11 5 15 10 7 7 6 12 2 6 15 19 14 15 15 13 5 7
27 29 22 23 19 18 3 3 10 8 11 6 9 15 28 20 25 23 20 21 24 20 12 15 11 17 14 19 9 18 18 9 9 10 7 3 7 3 5 9 13 11 10 7 8
28 20 13 18 19 17 3 5 6 5 16 11 18 19 18 20 14 21 28 26 25 24 15 15 14 9 12 12 17 8 12 15 17 7 8 11 12 14 20 9 3 7 6 6 8
19 18 17 10 20 14 4 12 10 4 10 19 12 16 22 28 18 22 24 23 26 26 21 9 5 7 11 6 2 12 12 7 8 10 13 8 8 8 12 10 11 10 6 3 7
13 3 5 19 19 6 7 8 15 16 14 13 11 9 17 26 25 27 19 12 30 24 23 14 11 6 8 16 19 9 10 6 6 12 10 11 6 5 4 3 10 9 6 3 8
4 4 4 24 7 6 12 9 12 16 18 11 5 4 18 23 22 22 24 19 24 24 31 22 12 12 14 4 11 22 20 21 12 11 7 12 16 7 8 8 6 8 5 2 5
2 5 12 17 8 10 13 12 15 10 15 7 12 9 6 17 13 18 16 8 18 24 21 18 12 12 8 6 4 12 18 19 22 14 20 13 5 4 5 5 3 6 3 2 6
2 3 3 5 6 10 18 22 24 19 23 15 7 4 9 13 7 16 13 5 15 22 12 21 11 22 13 4 14 14 17 18 20 15 15 19 19 17 16 15 11 6 7 5 5
3 3 1 4 9 19 18 9 25 21 22 15 12 14 14 10 15 10 13 7 6 9 14 17 20 16 20 8 11 14 15 19 23 23 20 17 21 18 20 18 13 13 12 13 10
3 2 2 7 12 14 19 20 19 28 10 20 18 25 14 12 16 14 15 16 14 8 20 9 10 18 16 14 13 14 17 19 22 23 23 21 23 16 17 16 15 14 13 12 10
3 4 3 8 13 8 11 26 23 25 26 22 27 18 20 15 11 11 8 11 12 16 20 16 10 12 17 16 13 15 20 20 19 17 19 20 21 21 14 15 15 13 11 12 9